www.pogodaiklimat.ru

Погода и климат >> Архив погоды >> Парагвай >> Сан Хуан Батистута


ПОГОДА в Сан Хуан Батистута

  • Прогноз погоды в Сан Хуан Батистута
  • Монитор погоды в Сан Хуан Батистута

АРХИВ ПОГОДЫ в Сан Хуан Батистута

Время (UTC), дата Ветер
(напр.,м/с)
 
Видим.   Явления Облачность Т
(С)
Тd
(С)
f
(%)
Тe
(С)
Тes
(С)
Комфортность P
(гПа)
Po
(гПа)
Тmin
(С)
Tmax
(С)
R
(мм)
R24
(мм)
S
(см)
06 16.05 штиль 0 20 км ясно +13.0 +11.6 91 +12 +12 1022.0 1006.5
09 16.05 штиль 0 20 км ясно +12.8 +11.4 91 +12 +12 1022.0 1006.5
12 16.05 штиль 0 20 км ясно +17.6 +15.2 86 +18 +20 1022.4 1007.0 +12.6
15 16.05 штиль 0 20 км ясно +21.4 +15.7 70 +25 +38 комфорт 1022.2 1006.8
18 16.05 В 2 20 км ясно +25.0 +12.9 47 +27 +34 жарко 1019.2 1004.0
21 16.05 В 2 20 км 6/6 800 м
[Cu Sc]
+23.4 +18.1 72 +29 +29 душно 1018.2 1003.0
00 17.05 В 2 20 км 6/6 800 м
[Cu Sc]
+19.8 +16.5 81 +23 +23 комфорт 1019.3 1003.9 +25.7
03 17.05 В 2 20 км ясно +17.0 +11.5 70 +17 +17 1021.6 1005.8
06 17.05 С 4 20 км 5/0 1500 м
[Ac und]
+16.0 +14.4 90 +15 +15 1021.5 1006.0
12 17.05 штиль 0 20 км ясно +17.6 +14.4 82 +18 +20 1014.3 1006.2 +16.0
15 17.05 В 4 20 км ясно +19.8 +10.8 56 +21 +28 комфорт 1020.2 1004.8
18 17.05 В 2 20 км ясно +23.4 +18.1 72 +29 +36 душно 1018.2 1003.0
21 17.05 В 2 20 км ясно +23.0 +16.8 68 +28 +28 душно 1017.0 1001.6
00 18.05 В 2 20 км ясно +21.2 +17.5 79 +25 +25 комфорт 1014.1 998.8 +26.9
03 18.05 В 2 20 км ясно +17.8 +16.6 93 +18 +18 1015.9 1000.4
06 18.05 В 3 20 км ясно +27.0 +11.4 38 +28 +28 жарко 1015.9 1000.6
09 18.05 В 3 20 км ясно +17.0 +11.4 70 +17 +17 1015.1 999.8
12 18.05 В 2 20 км ясно +19.4 +15.5 78 +22 +24 комфорт 1017.0 1001.6 +16.5
15 18.05 В 3 20 км ясно +23.4 +18.1 72 +29 +37 душно 1018.2 1003.0
18 18.05 В 3 20 км ясно +24.4 +13.5 51 +27 +32 жарко 1015.9 1000.6
21 18.05 В 3 20 км 5/5 800 м
[Sc]
+22.0 +19.4 85 +27 +27 душно 1013.9 998.5
00 19.05 штиль 0 20 км 8/8 800 м
[Sc]
+22.6 +18.5 78 +28 +28 душно 1015.0 999.8 +28.0
03 19.05 В 3 20 км 8/8 800 м
[Sc]
+21.0 +19.4 91 +26 +26 душно 1015.9 1000.6
06 19.05 В 2 20 км 10/10 600 м
[Sc]
+20.0 +20.0 100 +24 +24 комфорт 1015.1 999.8
09 19.05 В 2 20 км 8/8 600 м
[Sc]
+19.4 +15.5 78 +22 +22 комфорт 1014.0 998.8
12 19.05 СВ 2 20 км 10/10 600 м
[Sc]
+19.2 +11.7 62 +21 +21 комфорт 1016.2 1001.0 +17.5
15 19.05 штиль 0 20 км 10/10 400 м
[Sc]
+23.4 +18.1 72 +29 +29 душно 1017.0 1001.6
18 19.05 СВ 3 20 км 10/10 400 м
[Sc]
+21.0 +19.4 91 +26 +26 душно 1015.9 1000.6
21 19.05 В 4 20 км 10/10 400 м
[Sc]
+23.4 +18.1 72 +29 +29 душно 1014.2 999.1
00 20.05 В 1 20 км {дождь} 10/10 150 м
[Sc]
+20.2 +18.5 90 +25 +25 комфорт 1014.4 999.1 +24.5 0.5
03 20.05 В 2 20 км 8/8 600 м
[Sc]
+19.4 +15.5 78 +22 +22 комфорт 1014.0 999.8
06 20.05 штиль 0 20 км 10/10 400 м
[Sc]
+18.6 +16.7 89 +19 +19 1015.2 1000.0
09 20.05 штиль 0 20 км 10/10 400 м
[Sc]
+18.0 +16.5 91 +18 +18 1015.2 1000.0
12 20.05 штиль 0 20 км 10/10 400 м
[Sc]
+19.0 +16.7 87 +20 +20 1015.6 1000.5 +18.0 1
15 20.05 штиль 0 20 км 10/10 400 м
[Sc]
+24.0 +17.6 67 +28 +28 душно 1014.8 999.7
18 20.05 СВ 2 20 км 10/10 400 м
[Sc]
+26.2 +19.8 68 +32 +32 очень
душно
1011.2 996.2
21 20.05 СВ 2 20 км 10/10 400 м
[Sc]
+23.4 +18.1 72 +29 +29 душно 1010.6 995.6
00 21.05 СВ 3 20 км 10/10 400 м
[Sc]
+22.0 +19.4 85 +27 +27 душно 1011.7 996.5 +26.2
03 21.05 СВ 3 20 км гроза без осадков 10/10 400 м
[Cb cap]
+22.0 +19.4 85 +27 +27 душно 1013.9 998.5
06 21.05 штиль 0 20 км 10/10 400 м
[Sc]
+19.0 +17.6 92 +20 +20 1014.6 999.2
09 21.05 штиль 0 5000 м слаб. дождь 10/10 210 м
[Frnb Ns]
+18.4 +17.8 96 +19 +19 1015.0 999.6 10
12 21.05 штиль 0 5000 м дождь 10/10 210 м
[Frnb Ns]
+18.0 +16.8 93 +18 +18 1015.0 999.6 +18.0 15
15 21.05 штиль 0 5000 м дождь 10/10 210 м
[Frnb Ns]
+20.0 +18.7 92 +23 +23 комфорт 1014.6 999.0 18
18 21.05 Ю 2 20 км {дождь} 10/10 210 м
[Sc]
+20.6 +19.8 95 +26 +26 душно 1012.7 997.4 20
21 21.05 Ю 2 20 км 10/10 400 м
[Sc]
+19.4 +15.5 78 +22 +22 комфорт 1012.1 996.8 0.7
00 22.05 Ю 3 20 км 10/10 90 м
[Frnb]
+19.4 +18.7 96 +22 +22 комфорт 1013.7 998.3 +27.0 0.2
03 22.05 Ю 1 20 км 10/10 400 м
[Sc]
+20.2 +18.5 90 +25 +25 комфорт 1014.4 999.1
09 22.05 штиль 0 5000 м слаб. дождь 10/10 210 м
[Frnb Ns]
+17.4 +16.2 93 +17 +17 1015.2 999.6 2
12 22.05 В 1 20 км 10/10 400 м
[Sc]
+18.0 +16.7 92 +19 +19 1016.2 1000.6 +17.6 60
15 22.05 Ю 2 20 км 10/10 400 м
[Sc]
+17.0 +15.7 92 +17 +17 1016.0 1001.2
18 22.05 З 1 20 км 10/10 400 м
[Sc]
+19.6 +15.3 76 +23 +23 комфорт 1016.0 1000.6
21 22.05 З 1 20 км 10/10 400 м
[Sc]
+20.2 +18.5 90 +25 +25 комфорт 1014.4 999.1
00 23.05 З 1 20 км 8/8 800 м
[Sc]
+17.0 +15.4 90 +18 +18 1015.6 1000.0 +20.5

 

Местоположение метеостанции Сан Хуан Батистута (Парагвай): широта -26.66 долгота -57.15 высота над уровнем моря 126 м.

В архиве по умолчанию представлена погода в Сан Хуан Батистута за последнюю неделю. Архивные данные за месяц целиком и за предыдущие месяцы, начиная с января 2011 года, Вы можете получить, выбрав интересующий диапазон дат из раскрывающегося списка и нажав кнопку "Ввод!".


*Определитесь, кто Вы:
робот инопланетянин человек

Внимание! Время в таблицах - всемирное. Для получения местного времени необходимо прибавить поправку, которая равна -4 ч.

Смотрите также архив погоды в соседних городах и на ближайших метеорологических станциях:

Погода в Куйкуйо (Парагвай) (52 км)
Погода в Каасапе (Парагвай) (96 км)
Погода в Парагуари (Парагвай) (115 км)
Погода в Пиларе (Парагвай) (117 км)
Погода в Формосе (Аргентина) (119 км)
Погода в Вильяррике (Парагвай) (124 км)
Погода в Посадасе (Аргентина) (141 км)
Погода в Энкарнасьоне (Парагвай) (149 км)
Погода в Коронель-Овьедо (Парагвай) (156 км)
Погода в Асунсьоне (Парагвай) (161 км)

Пояснения к столбцам:

Ветер - указаны скорость ветра в м/с - средняя за 10 мин, порывы в срок и между сроками (в фигурных скобках) и направление, откуда дует ветер: С - северный, СВ - северо-восточный, В - восточный, ЮВ - юго-восточный, Ю - южный, ЮЗ - юго-западный, З - западный, СЗ - северо-западный.
Видимость - горизонтальная дальность видимости в метрах или километрах. При видимости от 1 до 10 км при отсутствии осадков обычно наблюдается дымка, при ухудшении видимости до 1 км и менее - туман. В сухую погоду видимость может ухудшаться дымом, пылью или мглою.
Явления - указаны атмосферные явления, наблюдавшиеся в срок или в последний час перед сроком; фигурными скобками обозначены явления, наблюдавшиеся между сроками (за 1-3 часа до срока); квадратными скобками обозначены град или гололедные отложения с указанием их диаметра в мм.
Облачность - указаны через наклонную черту общая и нижняя облачность в баллах и высота нижней границы облаков в метрах; квадратными скобками обозначены формы облаков: Ci - перистые, Cs - перисто-слоистые, Cc - перисто-кучевые, Ac - высококучевые, As - высокослоистые, Sc - слоисто-кучевые, Ns - слоисто-дождевые, Cu - кучевые, Cb - кучево-дождевые. Подробнее классификацию облаков см. в Атласе облаков (PDF).
T - Температура воздуха - температура, измеренная на высоте 2 м над землей.
Td - Температура точки росы - температура, при понижении до которой содержащийся в воздухе водяной пар достигнет насыщения.
f - Относительная влажность воздуха - влажноcть воздуха, измеренная на высоте 2 м над землей.
Te - Эффективная температура - температура, которую ощущает одетый по сезону человек в тени. Характеристика душности погоды. При расчете учитывается влияние влажности воздуха и скорости ветра на теплоощущения человека.
Tes - Эффективная температура на солнце - температура, которую ощущает человек, с поправкой на солнечный нагрев. Характеристика знойности погоды. Зависит от высоты солнца над горизонтом, облачности и скорости ветра. Ночью, в пасмурную погоду, а также при ветре 12 м/с и более поправка равна нулю.
P - Атмосферное давление - приведенное к уровню моря атмосферное давление.
Po - Атмосферное давление - измеренное на уровне метеостанции атмосферное давление.
Tmin - Минимальная температура - минимум температуры воздуха на высоте 2 м над землей.
Tmax - Максимальная температура - максимум температуры воздуха на высоте 2 м над землей.
R - Количество осадков - Количество выпавших осадков за период времени, мм. При наведении курсора мыши на число - период времени, за который выпало указанное количество осадков.
R24 - Количество осадков - Количество выпавших осадков за 24 часа, мм.
S - Снежный покров - Высота снежного покрова, см. При наведении курсора мыши на число - состояние снежного покрова и степень покрытия местности в баллах.